{"data":{"norad_id":51123,"intl_designator":"2022-005V","name":"STARLINK-3392","alt_names":[],"object_type":"PAYLOAD","status":"ACTIVE","operator":null,"country":"US","launch_date":"2022-01-19","launch_site_code":"AFETR","launch_vehicle":null,"mission":null,"orbit_class":"UNKNOWN","rcs_meters":null,"size_class":null,"mass_kg":null,"dimensions":null,"purposes":["comms"],"wikipedia_slug":null,"has_3d_model":false,"image_url":null,"decayed_at":null,"tle_current":{"epoch":"2026-05-25T03:48:13.660416Z","epoch_age_seconds":62183,"freshness":"FRESH","line1":"1 51123U 22005V   26145.15849144 -.00000167  00000+0  75939-5 0  9997","line2":"2 51123  53.2123 305.8372 0001426  83.6358 276.4796 15.08837982240428","mean_motion":15.08837982,"eccentricity":0.0001426,"inclination_deg":53.2123,"raan_deg":305.8372,"arg_perigee_deg":83.6358,"mean_anomaly_deg":276.4796,"bstar":7.5939e-6,"rev_number":24042,"period_min":95.437682321017,"perigee_km":538.76306656661,"apogee_km":540.73604781272,"semimajor_km":6917.8865571897,"source":"CELESTRAK","updated_at":"2026-05-25T13:38:16.910188Z"}}}